This is the latest recevied weather packets stored in our database for station/object WD9EKA. If no packets are shown the sender has not sent any weather packets the latest 10 day(s).
| Time | Temp. | Humidity | Pressure | Rain* | Wind** | Luminosity | Snow |
|---|---|---|---|---|---|---|---|
| 1777687834 | 5.56° C | 97% | 1013.2 hPa | 0 mm | - | - | - |
| 1777687113 | 6.11° C | 96% | 1012.8 hPa | 0 mm | - | - | - |
| 1777686812 | 6.11° C | 96% | 1012.9 hPa | 0 mm | - | - | - |
| 1777686493 | 6.11° C | 95% | 1013.1 hPa | 0 mm | - | - | - |
| 1777685852 | 5.56° C | 94% | 1012.9 hPa | 0 mm | - | - | - |
| 1777685533 | 6.11° C | 94% | 1012.8 hPa | 0 mm | - | - | - |
| 1777684588 | 6.11° C | 92% | 1012.3 hPa | 0 mm | - | - | - |
| 1777684269 | 6.11° C | 91% | 1012.5 hPa | 0 mm | - | - | - |
| 1777683948 | 6.67° C | 90% | 1012.2 hPa | 0 mm | - | - | - |
| 1777683634 | 6.67° C | 89% | 1012.3 hPa | 0 mm | - | - | - |
| 1777683273 | 6.67° C | 88% | 1012.1 hPa | 0 mm | - | - | - |
| 1777682956 | 7.22° C | 87% | 1012.1 hPa | 0 mm | - | - | - |
| 1777682637 | 7.22° C | 87% | 1012 hPa | 0 mm | - | - | - |
| 1777682313 | 7.78° C | 85% | 1011.9 hPa | 0 mm | - | - | - |
| 1777681954 | 7.78° C | 84% | 1011.9 hPa | 0 mm | - | - | - |
| 1777681644 | 8.33° C | 83% | 1011.8 hPa | 0 mm | - | - | - |
| 1777681326 | 8.33° C | 82% | 1011.8 hPa | 0 mm | - | - | - |
| 1777681005 | 8.89° C | 81% | 1011.7 hPa | 0 mm | - | - | - |
| 1777680679 | 8.89° C | 80% | 1011.8 hPa | 0 mm | - | - | - |
| 1777680349 | 9.44° C | 78% | 1011.6 hPa | 0 mm | - | - | - |
| 1777680013 | 9.44° C | 76% | 1011.8 hPa | 0 mm | - | - | - |
| 1777679693 | 10° C | 75% | 1011.3 hPa | 0 mm | - | - | - |
| 1777679053 | 10° C | 75% | 1011.3 hPa | 0 mm | - | - | - |
| 1777678732 | 10° C | 74% | 1011.4 hPa | 0 mm | - | - | - |
| 1777678413 | 10.56° C | 73% | 1011.4 hPa | 0 mm | - | - | - |
* Rain latest hour (hover to see other rain measurements)
** Current wind speed in m/s (hover to see current wind gust speed)